Regional Weather Roundup
Issued by NWS

Home | Current Version | Previous Version | Text Only | Print | Product List | Glossary Off
Versions: 1 2 3 4 5 6 7 8 9 10 11 12 13 14 15 16 17 18 19 20 21 22 23 24 25 26 27 28 29 30 31 32 33 34 35 36 37 38 39 40 41 42 43 44 45 46 47 48 49 50

000
ASUS43 KTOP 220408
RWRKS

WEATHER ROUNDUP FOR KANSAS
NATIONAL WEATHER SERVICE GOODLAND KS
1100 PM CDT SUN MAY 21 2017

NOTE:  "FAIR" INDICATES FEW OR NO CLOUDS BELOW 12,000 FEET WITH NO
SIGNIFICANT WEATHER AND/OR OBSTRUCTIONS TO VISIBILITY.

KSZ001>006-013>018-027>032-041>047-220500-
NORTHWEST KANSAS

CITY           SKY/WX    TMP DP  RH WIND       PRES   REMARKS
GOODLAND       CLOUDY    56  48  74 NE8       30.17R
HAYS           CLOUDY    59  51  75 SW13      30.13R
HILL CITY      MOCLDY    59  52  77 SE3       30.13R
RUSSELL        CLOUDY    60  52  74 S10       30.11R
$$

KSZ061>065-074>080-084>089-220500-
SOUTHWEST KANSAS

CITY           SKY/WX    TMP DP  RH WIND       PRES   REMARKS
DODGE CITY     MOCLDY    57  50  77 S9        30.16R
ELKHART          N/A     52  41  66 SE14        N/A
GARDEN CITY    CLOUDY    55  49  80 SE12      30.15S
LIBERAL        CLOUDY    59  50  72 SE17      30.12F
PRATT          PTCLDY    55  50  83 S3        30.16S
$$

KSZ066>073-081>083-090>101-220500-
SOUTHEAST KANSAS

CITY           SKY/WX    TMP DP  RH WIND       PRES   REMARKS
CHANUTE        CLEAR     57  53  86 SE5       30.14R
COFFEYVILLE    CLOUDY    61  58  90 S5        30.15R
HUTCHINSON     PTCLDY    54  52  93 CALM      30.13R
MEDICINE LODGE   N/A     61  54  77 CALM      30.16R
NEWTON         CLEAR     59  52  77 S6        30.14R
PARSONS        CLOUDY    58  55  90 CALM      30.16R
WICHITA INTL   PTCLDY    58  54  86 S6        30.14R
WICHITA JABRA  CLEAR     59  52  77 S6        30.14R
WICHITA MCCONL PTCLDY    59  51  76 SW6       30.14R
WINFIELD       PTCLDY    60  53  77 S3        30.16R
$$

KSZ007>012-019>026-033>040-048>060-102>105-220500-
NORTHEAST KANSAS

CITY           SKY/WX    TMP DP  RH WIND       PRES   REMARKS
CONCORDIA      PTCLDY    59  50  72 S10       30.11R
EMPORIA        CLEAR     56  52  86 S8        30.13R
LAWRENCE       CLEAR     52  50  93 CALM      30.12S
MANHATTAN      CLEAR     56  52  86 CALM      30.11S
MARYSVILLE     PTCLDY    55  46  71 S3        30.11S
OLATHE IND     CLEAR     56  48  74 CALM      30.13S
OLATHE EXE     CLEAR     55  48  77 CALM      30.13S
SALINA         PTCLDY    64  54  69 CALM      30.12S
TOPEKA BILLARD CLEAR     57  54  89 CALM      30.11S
TOPEKA FORBES  CLEAR     56  52  86 CALM      30.11F
$$




USA.gov is the U.S. government's official web portal to all federal, state and local government web resources and services.